Regional Weather Roundup
Issued by NWS Albany, NY

Home | Current Version | Previous Version | Text Only | Print | Product List | Glossary On
Versions: 1 2 3 4 5 6 7 8 9 10 11 12 13 14 15 16 17 18 19 20 21 22 23 24 25 26 27 28 29 30 31 32 33 34 35 36 37 38 39 40 41 42 43 44 45 46 47 48 49 50
000
ASUS41 KALY 061410
RWRALY

NEW YORK STATE HOURLY WEATHER ROUNDUP
NATIONAL WEATHER SERVICE ALBANY NY
1000 AM EDT MON JUL 06 2015

NOTE: "FAIR" INDICATES FEW OR NO CLOUDS BELOW 12,000 FEET WITH NO
SIGNIFICANT WEATHER AND/OR NO OBSTRUCTIONS TO VISIBILITY.

NYZ032-033-038>043-046>054-057>066-NYZ062>081-061500-
EAST


CITY           SKY/WX    TMP DP  RH WIND       PRES   REMARKS
ALBANY         MOSUNNY   73  63  70 NE3       30.17S
GLENS FALLS    SUNNY     71  61  70 CALM      30.18S
POUGHKEEPSIE   MOSUNNY   74  64  71 CALM      30.15F
NEWBURGH       MOSUNNY   73  66  78 CALM      30.18S
MONTGOMERY     MOSUNNY   73  66  78 S3        30.16F
WHITE PLAINS   MOSUNNY   77  67  71 SE5       30.16S
ISLIP          PTSUNNY   78  68  71 S5        30.15S
NEW YORK CITY  PTSUNNY   79  66  64 VRB7      30.15S
CENTRAL PARK   PTSUNNY   79  68  69 CALM      30.19R
$$

NYZ005>009-017-018-044>046-055-056-061500-
CENTRAL


CITY           SKY/WX    TMP DP  RH WIND       PRES   REMARKS
FULTON         SUNNY     74  64  71 VRB5      30.13F
SYRACUSE       PTSUNNY   73  63  70 E5        30.13F
ROME           SUNNY     72  59  63 E5        30.17F
ELMIRA         PTSUNNY   70  64  81 N3        30.14F
BINGHAMTON     MOSUNNY   69  61  75 SE5       30.18F
MONTICELLO     MOSUNNY   72  63  73 CALM      30.21F
$$

NYZ026>034-041>043-061500-
NORTH


CITY           SKY/WX    TMP DP  RH WIND       PRES   REMARKS
WATERTOWN      MOSUNNY   76  60  57 SE3       30.13F
FORT DRUM      NOT AVBL
MASSENA        SUNNY     74  59  59 SW5       30.15F
SARANAC LAKE   SUNNY     69  57  65 SW6       30.20F
PLATTSBURGH    SUNNY     70  62  76 SE6       30.16F
$$

NYZ001>004-010>016-019>021-061500-
WEST


CITY           SKY/WX    TMP DP  RH WIND       PRES   REMARKS
NIAGARA FALLS  MOSUNNY   75  63  66 S9        30.08S
BUFFALO        MOSUNNY   76  64  66 SW6       30.09S
DUNKIRK        MOSUNNY   77  66  68 S9G20     30.08S
JAMESTOWN      PTSUNNY   70  63  78 SE8       30.14S
WELLSVILLE     PTSUNNY   69  63  81 S7        30.18F
ROCHESTER      MOSUNNY   75  62  64 S7        30.10F
PENN YAN       PTSUNNY   72  63  73 S7        30.13F
$$

             KEY
       WCI = WIND CHILL INDEX
       VSB = VISIBILITY
       HX  = HEAT INDEX
$$


USA.gov is the U.S. government's official web portal to all federal, state and local government web resources and services.